GW0712 Weather Reports


Display with metric or nautical units.
time (UTC)temp
F
wind
direction
speed
MPH
gust
MPH
rain 1hr
in
rain 24hr
in
rain mn
in
humidity
%
barometer
mb
20260505172946 57 313 5.0 8.0 0.00 0.00 0.00 38 1011.3
20260505172445 57 253 1.0 8.0 0.00 0.00 0.00 40 1011.3
20260505171944 57 338 3.0 6.0 0.00 0.00 0.00 42 1011.1
20260505171441 56 254 2.0 6.0 0.00 0.00 0.00 42 1011.2
20260505170938 56 311 5.0 8.0 0.00 0.00 0.00 44 1011.5
20260505170435 56 268 3.0 6.0 0.00 0.00 0.00 43 1011.2
20260505165930 56 248 3.0 3.0 0.00 0.00 0.00 43 1011.1
20260505165426 56 315 3.0 8.0 0.00 0.00 0.00 41 1011.1
20260505164921 56 253 3.0 8.0 0.00 0.00 0.00 43 1011.2
20260505164419 56 246 3.0 6.0 0.00 0.00 0.00 42 1011.1
20260505163916 56 265 1.0 8.0 0.00 0.00 0.00 42 1010.9
20260505163415 57 256 2.0 8.0 0.00 0.00 0.00 44 1011.0
20260505162914 56 256 4.0 6.0 0.00 0.00 0.00 44 1011.1
20260505162409 56 259 4.0 6.0 0.00 0.00 0.00 42 1011.2
20260505161906 56 274 3.0 6.0 0.00 0.00 0.00 42 1011.3
20260505161403 57 256 3.0 6.0 0.00 0.00 0.00 40 1011.2
20260505160901 57 258 3.0 6.0 0.00 0.00 0.00 42 1011.0
20260505160359 56 245 4.0 6.0 0.00 0.00 0.00 44 1011.0
20260505153337 56 239 3.0 8.0 0.00 0.00 0.00 46 1011.1
20260505152834 57 238 3.0 6.0 0.00 0.00 0.00 46 1010.9
20260505152331 57 255 4.0 6.0 0.00 0.00 0.00 46 1011.1
20260505151826 56 242 3.0 6.0 0.00 0.00 0.00 47 1011.0
20260505151323 55 262 5.0 8.0 0.00 0.00 0.00 46 1011.1
20260505150819 55 242 3.0 6.0 0.00 0.00 0.00 49 1011.1
20260505150316 57 248 4.0 6.0 0.00 0.00 0.00 43 1011.1
20260505140241 53 242 3.0 6.0 0.00 0.00 0.00 50 1011.3
20260505130205 50 218 0.0 3.0 0.00 0.00 0.00 52 1011.2
20260505124655 50 218 0.0 0.0 0.00 0.00 0.00 56 1011.1
20260505124151 49 218 0.0 0.0 0.00 0.00 0.00 57 1010.9
20260505123647 48 218 0.0 3.0 0.00 0.00 0.00 58 1010.9
20260505123144 48 221 0.0 0.0 0.00 0.00 0.00 58 1011.7
20260505122640 48 220 0.0 0.0 0.00 0.00 0.00 60 1011.3
20260505122138 47 218 0.0 0.0 0.00 0.00 0.00 60 1011.1
20260505121634 46 220 0.0 0.0 0.00 0.00 0.00 65 1010.9
20260505121131 46 220 0.0 0.0 0.00 0.00 0.00 64 1010.8
20260505120627 46 221 0.0 0.0 0.00 0.00 0.00 66 1011.3
20260505120123 46 220 0.0 0.0 0.00 0.00 0.00 64 1011.9
20260505115618 45 220 0.0 0.0 0.00 0.00 0.00 66 1012.1
20260505115116 45 220 0.0 0.0 0.00 0.00 0.00 68 1011.3
20260505114612 45 220 0.0 0.0 0.00 0.00 0.00 67 1010.5
20260505114109 45 220 0.0 0.0 0.00 0.00 0.00 66 1010.3
20260505113605 45 220 0.0 0.0 0.00 0.00 0.00 67 1010.1
20260505113102 45 220 0.0 0.0 0.00 0.00 0.00 65 1009.8
20260505112558 45 220 0.0 0.0 0.00 0.00 0.00 64 1009.7
20260505112056 45 220 0.0 0.0 0.00 0.00 0.00 62 1009.6
20260505111550 45 220 0.0 0.0 0.00 0.00 0.00 60 1009.7
20260505111046 45 220 0.0 0.0 0.00 0.00 0.00 60 1009.8
20260505110543 46 220 0.0 0.0 0.00 0.00 0.00 59 1010.0
20260505102015 46 220 0.0 3.0 0.00 0.00 0.00 60 1009.2
20260505101514 46 219 0.0 0.0 0.00 0.00 0.00 60 1009.1
20260505101010 46 219 1.0 3.0 0.00 0.00 0.00 62 1009.3
20260505100507 46 221 0.0 0.0 0.00 0.00 0.00 63 1009.3
20260505100004 46 221 0.0 0.0 0.00 0.00 0.00 63 1009.0
20260505095500 46 221 0.0 0.0 0.00 0.00 0.00 61 1009.0
20260505094956 46 220 0.0 3.0 0.00 0.00 0.00 62 1008.6
20260505094453 46 219 0.0 0.0 0.00 0.00 0.00 63 1008.7
20260505093949 46 222 0.0 0.0 0.00 0.00 0.00 63 1008.8
20260505093446 46 218 0.0 0.0 0.00 0.00 0.00 62 1008.8
20260505092943 46 219 0.0 0.0 0.00 0.00 0.00 63 1009.4
20260505092441 46 219 0.0 0.0 0.00 0.00 0.00 64 1009.1
20260505091938 46 219 0.0 0.0 0.00 0.00 0.00 64 1009.2
20260505091435 46 219 0.0 0.0 0.00 0.00 0.00 64 1009.2
20260505090933 46 219 0.0 0.0 0.00 0.00 0.00 64 1009.3
20260505090431 46 219 0.0 0.0 0.00 0.00 0.00 63 1009.0
20260505085928 46 219 0.0 0.0 0.00 0.00 0.00 63 1008.8
20260505085426 46 219 0.0 0.0 0.00 0.00 0.00 63 1008.4
20260505084924 47 218 0.0 0.0 0.00 0.00 0.00 62 1008.3
20260505084422 47 219 0.0 0.0 0.00 0.00 0.00 60 1008.1
20260505083920 47 233 0.0 3.0 0.00 0.00 0.00 60 1008.0
20260505083417 47 218 0.0 0.0 0.00 0.00 0.00 63 1008.0
20260505082913 47 220 0.0 0.0 0.00 0.00 0.00 61 1007.5
20260505082409 48 217 0.0 0.0 0.00 0.00 0.00 61 1007.4
20260505081906 48 220 0.0 0.0 0.00 0.00 0.00 59 1007.6
20260505081403 48 221 0.0 0.0 0.00 0.00 0.00 61 1007.7
20260505080859 49 233 0.0 3.0 0.00 0.00 0.00 58 1007.7
20260505080355 49 223 1.0 3.0 0.00 0.00 0.00 58 1007.4
20260505075851 49 217 0.0 3.0 0.00 0.00 0.00 59 1007.1
20260505075348 49 215 0.0 3.0 0.00 0.00 0.00 60 1007.0
20260505074845 49 244 2.0 3.0 0.00 0.00 0.00 61 1007.0
20260505074342 50 211 0.0 3.0 0.00 0.00 0.00 60 1006.8
20260505073840 50 220 0.0 3.0 0.00 0.00 0.00 61 1006.4
20260505073338 50 219 0.0 0.0 0.00 0.00 0.00 61 1006.6
20260505072834 50 220 0.0 0.0 0.00 0.00 0.00 61 1006.8
20260505072330 50 220 0.0 0.0 0.00 0.00 0.00 61 1006.6
20260505071826 51 220 0.0 0.0 0.00 0.00 0.00 61 1006.6
20260505071323 51 218 0.0 0.0 0.00 0.00 0.00 60 1006.4
20260505070821 51 220 0.0 0.0 0.00 0.00 0.00 61 1006.2
20260505070318 51 220 0.0 0.0 0.00 0.00 0.00 59 1006.2
20260505065813 52 231 2.0 3.0 0.00 0.00 0.00 59 1006.2
20260505065310 52 227 0.0 3.0 0.00 0.00 0.00 59 1006.3
20260505064807 52 225 1.0 3.0 0.00 0.00 0.00 58 1006.2
20260505064304 53 220 1.0 3.0 0.00 0.00 0.00 59 1006.3
20260505063802 53 223 0.0 3.0 0.00 0.00 0.00 58 1006.2
20260505063258 53 243 1.0 3.0 0.00 0.00 0.00 57 1005.7
20260505062754 53 256 2.0 3.0 0.00 0.00 0.00 57 1005.8
20260505062252 54 246 1.0 3.0 0.00 0.00 0.00 57 1005.6
20260505061749 54 253 1.0 3.0 0.00 0.00 0.00 57 1005.6
20260505061247 54 231 0.0 3.0 0.00 0.00 0.00 56 1005.6
20260505060744 55 283 4.0 6.0 0.00 0.00 0.00 55 1005.5
20260505060241 55 227 3.0 6.0 0.00 0.00 0.00 54 1005.5
20260505055736 55 211 0.0 3.0 0.00 0.00 0.00 55 1005.5
20260505055233 55 276 4.0 8.0 0.00 0.00 0.00 53 1005.6
20260505054730 55 215 0.0 3.0 0.00 0.00 0.00 55 1005.5
20260505054228 55 216 0.0 0.0 0.00 0.00 0.00 53 1005.5
20260505053726 56 218 0.0 0.0 0.00 0.00 0.00 52 1005.2
20260505053222 56 217 0.0 3.0 0.00 0.00 0.00 52 1004.8
20260505052719 56 217 0.0 0.0 0.00 0.00 0.00 51 1005.1
20260505052216 57 228 0.0 3.0 0.00 0.00 0.00 51 1004.8
20260505051713 57 221 1.0 3.0 0.00 0.00 0.00 50 1004.6
20260505051206 57 224 0.0 3.0 0.00 0.00 0.00 50 1004.5
20260505050703 57 230 1.0 3.0 0.00 0.00 0.00 49 1004.4
20260505050201 57 225 0.0 3.0 0.00 0.00 0.00 48 1004.3
20260505041631 60 245 3.0 8.0 0.00 0.00 0.00 44 1003.3
20260505041128 60 264 6.0 6.0 0.00 0.00 0.00 43 1003.4
20260505040625 61 232 0.0 6.0 0.00 0.00 0.00 45 1003.4
20260505040122 61 247 1.0 6.0 0.00 0.00 0.00 46 1003.5
20260505035619 61 230 0.0 3.0 0.00 0.00 0.00 46 1003.5
20260505035115 61 222 0.0 3.0 0.00 0.00 0.00 47 1003.1
20260505034612 61 230 0.0 3.0 0.00 0.00 0.00 48 1003.1
20260505034109 61 222 0.0 3.0 0.00 0.00 0.00 49 1003.2
20260505033605 61 232 0.0 3.0 0.00 0.00 0.00 48 1003.3
20260505033104 62 223 0.0 3.0 0.00 0.00 0.00 48 1003.5
20260505032601 62 221 0.0 0.0 0.00 0.00 0.00 47 1003.6
20260505032057 62 222 0.0 0.0 0.00 0.00 0.00 47 1003.3
20260505031555 62 222 0.0 3.0 0.00 0.00 0.00 46 1003.4
20260505031051 62 223 1.0 3.0 0.00 0.00 0.00 47 1003.2
20260505030548 62 231 1.0 3.0 0.00 0.00 0.00 46 1003.2
20260505030044 62 226 0.0 3.0 0.00 0.00 0.00 46 1002.9
20260505025540 63 226 0.0 3.0 0.00 0.00 0.00 45 1002.9
20260505025039 63 266 2.0 6.0 0.00 0.00 0.00 46 1003.0
20260505024536 63 225 0.0 3.0 0.00 0.00 0.00 45 1003.0
20260505024033 64 226 2.0 3.0 0.00 0.00 0.00 45 1002.9
20260505023530 64 251 4.0 6.0 0.00 0.00 0.00 44 1002.9
20260505023028 64 238 3.0 3.0 0.00 0.00 0.00 46 1002.7
20260505022525 64 224 0.0 3.0 0.00 0.00 0.00 46 1002.8
20260505022022 65 224 0.0 3.0 0.00 0.00 0.00 46 1002.4
20260505021518 65 229 1.0 3.0 0.00 0.00 0.00 45 1002.2
20260505021014 65 266 4.0 8.0 0.00 0.00 0.00 45 1002.4
20260505020509 66 251 3.0 6.0 0.00 0.00 0.00 47 1002.0
20260505020006 66 292 4.0 8.0 0.00 0.00 0.00 46 1001.9
20260505015503 67 224 0.0 6.0 0.00 0.00 0.00 49 1001.7
20260505015000 67 224 1.0 3.0 0.00 0.00 0.00 50 1001.5
20260505014457 67 225 1.0 6.0 0.00 0.00 0.00 50 1001.5
20260505013955 68 222 0.0 0.0 0.00 0.00 0.00 51 1001.4
20260505013451 68 223 0.0 0.0 0.00 0.00 0.00 49 1001.0
20260505012949 68 229 2.0 3.0 0.00 0.00 0.00 50 1000.8
20260505012447 68 220 0.0 3.0 0.00 0.00 0.00 51 1000.4
20260505011943 68 239 2.0 3.0 0.00 0.00 0.00 51 1000.3
20260505011439 69 221 0.0 3.0 0.00 0.00 0.00 50 999.9
20260505010936 69 222 2.0 3.0 0.00 0.00 0.00 50 999.9
20260505010432 69 262 2.0 6.0 0.00 0.00 0.00 49 999.5
20260505005928 70 220 0.0 3.0 0.00 0.00 0.00 50 999.4
20260505005425 71 223 1.0 6.0 0.00 0.00 0.00 48 999.4
20260505004923 71 235 1.0 6.0 0.00 0.00 0.00 49 999.4
20260505004419 72 231 0.0 6.0 0.00 0.00 0.00 49 999.3
20260505003916 72 232 0.0 3.0 0.00 0.00 0.00 48 999.0
20260505003413 72 232 0.0 3.0 0.00 0.00 0.00 49 998.8
20260505002909 73 232 0.0 3.0 0.00 0.00 0.00 48 998.5
20260505002406 73 232 0.0 3.0 0.00 0.00 0.00 46 998.3
20260505001904 73 232 0.0 3.0 0.00 0.00 0.00 46 998.3
20260505001401 73 233 0.0 0.0 0.00 0.00 0.00 46 998.1
20260505000859 74 233 0.0 3.0 0.00 0.00 0.00 45 998.1
20260505000358 74 234 1.0 3.0 0.00 0.00 0.00 43 998.3
20260504235853 74 235 1.0 3.0 0.00 0.00 0.00 43 998.5
20260504235350 75 235 0.0 3.0 0.00 0.00 0.00 43 998.2
20260504234846 75 236 3.0 6.0 0.00 0.00 0.00 42 998.5
20260504234344 75 241 3.0 6.0 0.00 0.00 0.00 41 998.4
20260504233840 75 246 4.0 6.0 0.00 0.00 0.00 41 998.3
20260504233336 75 238 0.0 3.0 0.00 0.00 0.00 41 998.4
20260504232833 75 240 0.0 3.0 0.00 0.00 0.00 41 998.6
20260504232330 75 249 3.0 6.0 0.00 0.00 0.00 41 998.7
20260504231827 75 246 3.0 6.0 0.00 0.00 0.00 39 998.9
20260504231323 75 250 2.0 6.0 0.00 0.00 0.00 41 998.8
20260504230819 75 259 5.0 6.0 0.00 0.00 0.00 40 999.0
20260504230318 75 279 7.0 8.0 0.00 0.00 0.00 39 999.1
20260504225816 76 277 6.0 14.0 0.00 0.00 0.00 38 999.0
20260504225312 76 244 1.0 6.0 0.00 0.00 0.00 42 999.1
20260504224809 76 247 3.0 6.0 0.00 0.00 0.00 40 998.7
20260504224306 77 246 3.0 6.0 0.00 0.00 0.00 42 998.8
20260504223803 78 253 2.0 8.0 0.00 0.00 0.00 40 998.9
20260504223258 78 252 3.0 6.0 0.00 0.00 0.00 39 998.8
20260504222755 77 257 3.0 6.0 0.00 0.00 0.00 40 998.9
20260504222252 78 249 5.0 6.0 0.00 0.00 0.00 39 998.9
20260504221750 78 255 3.0 6.0 0.00 0.00 0.00 40 998.7
20260504221247 79 255 2.0 6.0 0.00 0.00 0.00 40 998.9
20260504220743 79 270 4.0 8.0 0.00 0.00 0.00 38 998.9
20260504220241 80 240 4.0 6.0 0.00 0.00 0.00 38 999.1
20260504215738 78 244 4.0 6.0 0.00 0.00 0.00 38 999.1
20260504215234 77 251 5.0 6.0 0.00 0.00 0.00 38 999.2
20260504214730 78 269 6.0 8.0 0.00 0.00 0.00 38 999.3
20260504214227 79 300 9.0 11.0 0.00 0.00 0.00 36 999.3
20260504213724 77 247 6.0 11.0 0.00 0.00 0.00 38 999.1
20260504213220 78 246 3.0 6.0 0.00 0.00 0.00 39 999.4
20260504212717 78 309 5.0 8.0 0.00 0.00 0.00 37 999.4
20260504212214 79 258 4.0 8.0 0.00 0.00 0.00 37 999.3
20260504211711 79 263 4.0 8.0 0.00 0.00 0.00 36 999.2
20260504211207 80 307 7.0 17.0 0.00 0.00 0.00 35 999.6
20260504210705 80 257 3.0 8.0 0.00 0.00 0.00 38 999.4
20260504210201 79 272 5.0 11.0 0.00 0.00 0.00 38 999.6
20260504205659 79 262 4.0 8.0 0.00 0.00 0.00 37 999.6
20260504205156 79 314 11.0 14.0 0.00 0.00 0.00 37 999.6
20260504204654 80 273 5.0 6.0 0.00 0.00 0.00 37 999.6
20260504204153 80 286 5.0 11.0 0.00 0.00 0.00 38 999.7
20260504203651 80 237 6.0 8.0 0.00 0.00 0.00 38 999.5
20260504203148 79 250 5.0 6.0 0.00 0.00 0.00 38 999.7
20260504202643 79 326 8.0 11.0 0.00 0.00 0.00 37 999.8
20260504202140 79 258 5.0 6.0 0.00 0.00 0.00 37 999.9
20260504201637 80 290 9.0 11.0 0.00 0.00 0.00 36 1000.0
20260504201135 79 273 6.0 11.0 0.00 0.00 0.00 36 1000.1
20260504200632 80 323 5.0 11.0 0.00 0.00 0.00 37 1000.0
20260504200128 79 280 6.0 11.0 0.00 0.00 0.00 37 1000.1
20260504195624 79 258 5.0 14.0 0.00 0.00 0.00 36 1000.0
20260504195121 79 313 7.0 11.0 0.00 0.00 0.00 36 1000.4
20260504194618 79 246 3.0 6.0 0.00 0.00 0.00 39 1000.3
20260504194114 79 266 6.0 14.0 0.00 0.00 0.00 37 1000.1
20260504193610 79 258 6.0 11.0 0.00 0.00 0.00 35 1000.3
20260504193109 79 277 6.0 11.0 0.00 0.00 0.00 37 1000.3
20260504192606 80 271 6.0 8.0 0.00 0.00 0.00 34 1000.5
20260504192104 79 248 3.0 8.0 0.00 0.00 0.00 39 1000.4
20260504191602 79 312 8.0 11.0 0.00 0.00 0.00 36 1000.5
20260504191058 78 333 5.0 8.0 0.00 0.00 0.00 36 1000.3
20260504190554 79 277 7.0 8.0 0.00 0.00 0.00 35 1000.6
20260504190050 79 279 4.0 6.0 0.00 0.00 0.00 38 1000.5
20260504185548 79 297 4.0 8.0 0.00 0.00 0.00 37 1000.5
20260504185044 79 307 7.0 8.0 0.00 0.00 0.00 37 1000.6
20260504184539 78 253 4.0 11.0 0.00 0.00 0.00 35 1000.8
20260504184035 78 276 6.0 14.0 0.00 0.00 0.00 35 1000.6
20260504183532 78 247 7.0 8.0 0.00 0.00 0.00 36 1000.8
20260504183030 78 260 7.0 11.0 0.00 0.00 0.00 35 1000.8
20260504182527 78 258 3.0 11.0 0.00 0.00 0.00 37 1000.9
20260504182024 78 267 3.0 6.0 0.00 0.00 0.00 38 1000.8
20260504181521 77 272 4.0 8.0 0.00 0.00 0.00 37 1001.2
20260504181020 78 274 3.0 6.0 0.00 0.00 0.00 36 1001.0
20260504180518 77 288 7.0 11.0 0.00 0.00 0.00 37 1001.0
20260504180017 77 242 4.0 11.0 0.00 0.00 0.00 37 1001.1
20260504175513 77 238 3.0 6.0 0.00 0.00 0.00 41 1000.9
20260504175011 77 269 8.0 8.0 0.00 0.00 0.00 36 1001.2
20260504174508 77 246 4.0 8.0 0.00 0.00 0.00 37 1001.5
20260504174005 77 303 7.0 8.0 0.00 0.00 0.00 36 1001.1
20260504173502 76 304 11.0 11.0 0.00 0.00 0.00 36 1001.4